Location: *
(45.0500°N, 12.0500°E)
Time: 08:34:49
(UTC+00:00)

Cosmos 676 Rocket - Pass Details

Date: 09 April 2020
Orbit: 755 x 783 km, 74.0° (Epoch: 24 May)

Event Time Altitude Azimuth Distance (km) Brightness Sun altitude
Rises 19:05:46 0° 190° (S) 3,243 7.1 -13.4°
Reaches altitude 10° 19:08:09 10° 188° (S) 2,316 6.3 -13.8°
Maximum altitude 19:13:21 65° 107° (ESE) 847 3.9 -14.6°
Drops below altitude 10° 19:18:33 10° 27° (NNE) 2,313 6.5 -15.4°
Sets 19:20:56 0° 24° (NNE) 3,239 7.3 -15.8°
